KB7STN Weather Reports


time (UTC)temp
C
wind
direction
speed
KPH
gust
KPH
rain 1hr
cm
rain 24hr
cm
rain mn
cm
humidity
%
barometer
mb
20260507122713 8 156 3.2 19.3 0.00 0.00 0.00 39 1011.3
20260507122213 8 278 1.6 4.8 0.00 0.00 0.00 41 1011.2
20260507121713 8 278 1.6 4.8 0.00 0.00 0.00 41 1011.3
20260507121213 8 278 1.6 4.8 0.00 0.00 0.00 42 1011.3
20260507120713 8 278 1.6 3.2 0.00 0.00 0.00 41 1011.2
20260507120213 8 278 1.6 4.8 0.00 0.00 0.00 40 1011.1
20260507115713 8 278 0.0 3.2 0.00 0.00 0.00 39 1011.2
20260507115213 9 278 0.0 0.0 0.00 0.00 0.00 40 1011.2
20260507114713 9 278 0.0 0.0 0.00 0.00 0.00 38 1011.3
20260507114213 10 278 0.0 3.2 0.00 0.00 0.00 37 1011.3
20260507113713 10 278 0.0 3.2 0.00 0.00 0.00 37 1011.4
20260507113213 10 278 1.6 3.2 0.00 0.00 0.00 36 1011.6
20260507112713 10 278 1.6 3.2 0.00 0.00 0.00 35 1011.6
20260507112213 11 278 1.6 3.2 0.00 0.00 0.00 34 1011.7
20260507111713 11 278 3.2 4.8 0.00 0.00 0.00 34 1011.6
20260507111213 12 278 4.8 9.7 0.00 0.00 0.00 31 1011.6
20260507110713 12 278 4.8 17.7 0.00 0.00 0.00 30 1011.5
20260507110213 12 215 3.2 11.3 0.00 0.00 0.00 30 1011.5
20260507105713 12 220 3.2 11.3 0.00 0.00 0.00 30 1011.7
20260507105213 11 205 4.8 12.9 0.00 0.00 0.00 30 1011.7
20260507104713 11 222 4.8 11.3 0.00 0.00 0.00 30 1011.9
20260507104213 11 229 4.8 11.3 0.00 0.00 0.00 31 1011.7
20260507103713 11 235 3.2 12.9 0.00 0.00 0.00 31 1011.9
20260507103213 11 289 3.2 20.9 0.00 0.00 0.00 31 1011.9
20260507102713 11 254 3.2 8.0 0.00 0.00 0.00 32 1011.9
20260507102213 11 251 3.2 11.3 0.00 0.00 0.00 32 1012.0
20260507101713 11 257 3.2 8.0 0.00 0.00 0.00 34 1012.0
20260507101213 10 258 4.8 14.5 0.00 0.00 0.00 34 1011.9
20260507100713 10 254 4.8 11.3 0.00 0.00 0.00 35 1011.9
20260507100213 10 257 4.8 17.7 0.00 0.00 0.00 36 1012.1
20260507095713 10 290 4.8 11.3 0.00 0.00 0.00 37 1012.0
20260507095213 9 49 3.2 12.9 0.00 0.00 0.00 39 1012.2
20260507094713 9 182 1.6 4.8 0.00 0.00 0.00 39 1012.3
20260507094213 9 183 0.0 3.2 0.00 0.00 0.00 38 1012.5
20260507093713 9 183 0.0 3.2 0.00 0.00 0.00 39 1012.5
20260507093213 10 183 1.6 3.2 0.00 0.00 0.00 38 1012.6
20260507092713 10 183 1.6 4.8 0.00 0.00 0.00 38 1012.6
20260507092213 10 183 1.6 4.8 0.00 0.00 0.00 36 1012.6
20260507091713 10 184 1.6 4.8 0.00 0.00 0.00 37 1012.7
20260507091213 10 184 1.6 3.2 0.00 0.00 0.00 37 1012.7
20260507090713 10 184 1.6 0.0 0.00 0.05 0.00 36 1012.8
20260507090213 10 184 1.6 3.2 0.00 0.05 0.00 36 1012.9
20260507085713 10 182 1.6 4.8 0.00 0.05 0.00 36 1012.8
20260507085213 10 182 3.2 8.0 0.00 0.05 0.00 36 1012.8
20260507084713 10 0 3.2 9.7 0.00 0.05 0.00 35 1012.8
20260507084213 10 9 1.6 4.8 0.00 0.05 0.00 37 1013.0
20260507083713 10 9 1.6 4.8 0.00 0.05 0.00 36 1012.9
20260507083213 10 9 1.6 3.2 0.00 0.05 0.00 36 1013.2
20260507082713 10 9 3.2 6.4 0.00 0.05 0.00 36 1013.1
20260507082213 10 9 3.2 6.4 0.00 0.05 0.00 37 1013.1
20260507081713 10 23 3.2 6.4 0.00 0.05 0.00 35 1013.0
20260507081213 10 13 1.6 6.4 0.00 0.05 0.00 38 1013.1
20260507080713 9 11 1.6 8.0 0.00 0.23 0.00 39 1013.3
20260507080213 9 355 1.6 11.3 0.00 0.23 0.00 40 1013.2
20260507075713 9 38 1.6 3.2 0.00 0.23 0.00 40 1013.2
20260507075213 9 38 1.6 8.0 0.00 0.23 0.00 40 1013.3
20260507074713 9 38 0.0 0.0 0.00 0.23 0.00 40 1013.3
20260507074213 9 38 1.6 3.2 0.00 0.23 0.00 40 1013.4
20260507073713 9 38 0.0 4.8 0.00 0.23 0.00 40 1013.3
20260507073213 9 38 0.0 3.2 0.00 0.23 0.00 40 1013.4
20260507072713 9 38 0.0 3.2 0.00 0.23 0.00 41 1013.6
20260507072213 9 38 0.0 1.6 0.00 0.23 0.00 41 1013.6
20260507071713 8 38 0.0 3.2 0.00 0.23 0.00 41 1013.7
20260507071213 8 38 0.0 0.0 0.00 0.23 0.00 42 1013.7
20260507070713 8 38 0.0 0.0 0.00 0.23 0.00 41 1013.8
20260507070213 8 38 0.0 0.0 0.00 0.23 0.00 41 1013.8
20260507065713 8 38 0.0 0.0 0.00 0.23 0.00 42 1013.7
20260507065213 8 38 0.0 0.0 0.00 0.23 0.00 41 1013.7
20260507064713 8 38 0.0 0.0 0.00 0.23 0.00 41 1013.7
20260507064213 8 38 0.0 0.0 0.00 0.23 0.00 41 1013.7
20260507063713 8 38 0.0 0.0 0.00 0.23 0.00 41 1013.7
20260507063213 8 38 0.0 0.0 0.00 0.23 0.00 40 1013.7
20260507062713 8 38 0.0 1.6 0.00 0.23 0.00 40 1013.7
20260507062213 8 38 1.6 3.2 0.00 0.23 0.00 40 1013.7
20260507061713 8 38 0.0 4.8 0.00 0.23 0.00 41 1013.6
20260507061213 8 38 0.0 0.0 0.00 0.23 0.00 39 1013.6
20260507060713 8 38 0.0 0.0 0.00 0.23 0.00 40 1013.6
20260507060213 8 38 0.0 3.2 0.00 0.23 0.00 41 1013.6
20260507055713 8 38 0.0 1.6 0.00 0.23 0.23 40 1013.5
20260507055213 8 38 0.0 4.8 0.00 0.23 0.23 41 1013.5
20260507054713 8 38 0.0 0.0 0.00 0.23 0.23 41 1013.5
20260507054213 9 38 0.0 0.0 0.00 0.23 0.23 40 1013.4
20260507053713 9 38 1.6 3.2 0.00 0.23 0.23 40 1013.4
20260507053213 9 38 1.6 4.8 0.00 0.23 0.23 39 1013.5
20260507052713 10 38 0.0 3.2 0.00 0.23 0.23 38 1013.4
20260507052213 10 38 0.0 0.0 0.00 0.23 0.23 38 1013.4
20260507051713 10 38 0.0 0.0 0.00 0.23 0.23 37 1013.4
20260507051213 10 38 0.0 1.6 0.00 0.23 0.23 37 1013.5
20260507050713 10 38 0.0 0.0 0.00 0.23 0.23 36 1013.5
20260507050213 10 38 0.0 0.0 0.00 0.23 0.23 36 1013.6
20260507045713 10 38 0.0 0.0 0.00 0.23 0.23 37 1013.7
20260507045213 10 38 0.0 0.0 0.00 0.23 0.23 37 1013.7
20260507044713 10 38 0.0 0.0 0.00 0.23 0.23 37 1013.7
20260507044213 10 38 0.0 0.0 0.00 0.23 0.23 38 1013.7
20260507043713 10 38 0.0 0.0 0.00 0.23 0.23 38 1013.6
20260507043213 10 38 0.0 0.0 0.00 0.23 0.23 36 1013.6
20260507042713 10 38 0.0 0.0 0.00 0.23 0.23 37 1013.5
20260507042213 10 38 0.0 0.0 0.00 0.23 0.23 36 1013.5
20260507041713 10 38 0.0 0.0 0.00 0.23 0.23 35 1013.5
20260507041213 10 38 0.0 0.0 0.00 0.23 0.23 35 1013.5
20260507040713 10 38 0.0 0.0 0.00 0.23 0.23 35 1013.6
20260507040214 10 38 0.0 0.0 0.00 0.23 0.23 35 1013.6
20260507035713 10 38 0.0 0.0 0.00 0.23 0.23 35 1013.7
20260507035213 10 38 0.0 0.0 0.00 0.23 0.23 36 1013.7
20260507034713 10 38 0.0 0.0 0.00 0.23 0.23 36 1013.7
20260507034213 10 38 0.0 0.0 0.00 0.23 0.23 36 1013.6
20260507033713 10 38 0.0 0.0 0.00 0.23 0.23 35 1013.5
20260507033213 10 38 0.0 0.0 0.00 0.23 0.23 35 1013.5
20260507032713 10 38 0.0 0.0 0.00 0.23 0.23 35 1013.4
20260507032213 10 38 0.0 0.0 0.00 0.23 0.23 34 1013.2
20260507031714 11 38 0.0 0.0 0.00 0.23 0.23 34 1013.1
20260507031214 11 38 0.0 0.0 0.00 0.23 0.23 34 1013.1
20260507030713 11 38 0.0 0.0 0.00 0.23 0.23 35 1013.1
20260507030213 11 38 0.0 0.0 0.00 0.23 0.23 34 1013.1
20260507025714 11 38 0.0 0.0 0.00 0.23 0.23 34 1013.1
20260507025213 11 38 0.0 0.0 0.00 0.23 0.23 34 1013.1
20260507024714 12 38 0.0 0.0 0.00 0.23 0.23 32 1013.2
20260507024213 12 38 0.0 0.0 0.00 0.23 0.23 32 1013.2
20260507023714 12 38 0.0 0.0 0.00 0.23 0.23 32 1013.1
20260507023214 12 38 0.0 3.2 0.00 0.23 0.23 32 1013.1
20260507022714 12 38 0.0 0.0 0.00 0.23 0.23 30 1013.0
20260507022214 13 38 0.0 1.6 0.00 0.23 0.23 28 1013.1
20260507021714 13 38 0.0 1.6 0.00 0.23 0.23 30 1013.1
20260507021214 13 38 0.0 1.6 0.00 0.23 0.23 26 1013.0
20260507020714 13 38 0.0 3.2 0.00 0.23 0.23 26 1013.0
20260507020214 14 38 0.0 3.2 0.00 0.23 0.23 26 1013.0
20260507015714 14 38 1.6 6.4 0.00 0.23 0.23 26 1013.1
20260507015214 14 38 1.6 6.4 0.00 0.23 0.23 26 1013.1
20260507014714 15 38 0.0 4.8 0.00 0.23 0.23 25 1013.1
20260507014214 15 38 1.6 3.2 0.00 0.23 0.23 24 1013.1
20260507013714 15 38 3.2 6.4 0.00 0.23 0.23 24 1013.1
20260507013214 15 38 1.6 6.4 0.00 0.23 0.23 23 1013.1
20260507012714 15 38 1.6 6.4 0.00 0.23 0.23 23 1013.1
20260507012214 15 38 3.2 11.3 0.00 0.23 0.23 23 1013.2
20260507011714 16 37 3.2 11.3 0.00 0.23 0.23 23 1013.1
20260507011214 16 41 1.6 8.0 0.00 0.23 0.23 23 1013.2
20260507010714 16 38 1.6 6.4 0.00 0.23 0.23 24 1013.2
20260507010214 16 38 3.2 8.0 0.00 0.23 0.23 23 1013.2
20260507005714 16 39 3.2 8.0 0.00 0.23 0.23 24 1013.4
20260507005214 16 38 3.2 8.0 0.00 0.23 0.23 23 1013.3
20260507004714 16 39 4.8 8.0 0.00 0.23 0.23 23 1013.4
20260507004214 16 31 4.8 11.3 0.00 0.23 0.23 23 1013.4
20260507003714 16 29 4.8 11.3 0.00 0.23 0.23 23 1013.4
20260507003214 16 30 4.8 12.9 0.00 0.23 0.23 23 1013.3
20260507002714 16 46 3.2 9.7 0.00 0.23 0.23 24 1013.2
20260507002214 16 34 3.2 14.5 0.00 0.23 0.23 24 1013.3
20260507001714 16 28 4.8 12.9 0.00 0.23 0.23 23 1013.2
20260507001214 16 46 4.8 12.9 0.00 0.23 0.23 24 1013.3
20260507000714 15 42 4.8 12.9 0.00 0.23 0.23 24 1013.3
20260507000214 15 61 4.8 12.9 0.00 0.23 0.23 23 1013.3
20260506235714 15 71 6.4 14.5 0.00 0.23 0.23 23 1013.3
20260506235214 15 38 6.4 16.1 0.00 0.23 0.23 24 1013.3
20260506234714 15 39 6.4 12.9 0.00 0.23 0.23 23 1013.2
20260506234214 15 29 6.4 19.3 0.00 0.23 0.23 23 1013.3
20260506233714 15 47 6.4 12.9 0.00 0.23 0.23 24 1013.2
20260506233214 15 32 6.4 16.1 0.00 0.23 0.23 23 1013.2
20260506232714 16 50 4.8 14.5 0.00 0.23 0.23 23 1013.1
20260506232214 16 14 4.8 14.5 0.00 0.23 0.23 24 1013.2
20260506231714 16 62 4.8 11.3 0.00 0.23 0.23 24 1013.2
20260506231214 15 33 4.8 11.3 0.00 0.23 0.23 25 1013.2
20260506230714 15 34 6.4 14.5 0.00 0.23 0.23 24 1013.3
20260506230214 15 46 4.8 16.1 0.00 0.23 0.23 23 1013.2
20260506225714 15 64 6.4 12.9 0.00 0.23 0.23 25 1013.2
20260506225214 15 54 6.4 17.7 0.00 0.23 0.23 23 1013.2
20260506224714 16 106 4.8 20.9 0.00 0.23 0.23 24 1013.3
20260506224214 15 24 6.4 14.5 0.00 0.23 0.23 26 1013.4
20260506223714 15 57 6.4 20.9 0.00 0.23 0.23 24 1013.4
20260506223214 15 42 4.8 14.5 0.00 0.23 0.23 25 1013.4
20260506222714 15 65 4.8 17.7 0.00 0.23 0.23 26 1013.4
20260506222214 15 62 4.8 12.9 0.00 0.23 0.23 26 1013.4
20260506221714 15 31 4.8 14.5 0.00 0.23 0.23 26 1013.4
20260506221214 15 26 6.4 14.5 0.00 0.23 0.23 27 1013.5
20260506220714 15 28 6.4 16.1 0.00 0.23 0.23 27 1013.6
20260506220214 15 33 4.8 14.5 0.00 0.23 0.23 27 1013.5
20260506215714 15 28 6.4 9.7 0.00 0.23 0.23 27 1013.5
20260506215214 15 27 6.4 17.7 0.00 0.23 0.23 27 1013.7
20260506214714 15 313 6.4 19.3 0.00 0.23 0.23 27 1013.8
20260506214214 15 28 6.4 19.3 0.00 0.23 0.23 29 1013.8
20260506213714 15 34 4.8 16.1 0.00 0.23 0.23 27 1013.8
20260506213214 15 29 4.8 16.1 0.00 0.23 0.23 30 1013.9
20260506212714 15 57 4.8 14.5 0.00 0.23 0.23 27 1014.0
20260506212214 15 37 4.8 12.9 0.00 0.23 0.23 29 1014.1
20260506211714 15 33 4.8 11.3 0.00 0.23 0.23 29 1014.0
20260506211214 15 21 6.4 22.5 0.00 0.23 0.23 28 1014.0
20260506210714 15 327 4.8 17.7 0.00 0.23 0.23 29 1013.7
20260506210214 15 320 6.4 14.5 0.00 0.23 0.23 29 1014.0
20260506205714 15 35 6.4 20.9 0.00 0.23 0.23 29 1014.0
20260506205214 14 55 6.4 17.7 0.00 0.23 0.23 29 1014.0
20260506204714 14 40 6.4 14.5 0.00 0.23 0.23 28 1013.9
20260506204214 14 315 8.0 22.5 0.00 0.23 0.23 30 1013.9
20260506203714 14 53 6.4 14.5 0.00 0.23 0.23 30 1013.8
20260506203214 14 58 6.4 16.1 0.00 0.23 0.23 27 1014.0
20260506202714 14 57 6.4 22.5 0.00 0.23 0.23 30 1014.0
20260506202214 14 28 6.4 16.1 0.00 0.23 0.23 30 1014.1
20260506201714 14 326 6.4 20.9 0.00 0.23 0.23 29 1014.1
20260506201214 13 35 6.4 14.5 0.00 0.23 0.23 31 1014.1
20260506200714 13 35 8.0 16.1 0.00 0.23 0.23 28 1014.2
20260506200214 13 15 6.4 17.7 0.00 0.23 0.23 29 1014.1
20260506195714 13 22 6.4 19.3 0.00 0.23 0.23 29 1014.0
20260506195214 13 26 8.0 16.1 0.00 0.23 0.23 27 1014.0
20260506194714 13 30 6.4 16.1 0.00 0.23 0.23 28 1014.1
20260506194214 13 32 6.4 16.1 0.00 0.23 0.23 29 1014.0
20260506193714 13 48 6.4 16.1 0.00 0.23 0.23 29 1014.1
20260506193214 13 320 8.0 14.5 0.00 0.23 0.23 31 1013.9
20260506192714 13 22 8.0 20.9 0.00 0.23 0.23 27 1014.1
20260506192214 13 21 6.4 17.7 0.00 0.23 0.23 28 1014.1
20260506191714 13 19 6.4 14.5 0.00 0.23 0.23 31 1014.2
20260506191214 12 38 6.4 12.9 0.00 0.23 0.23 29 1014.1
20260506190714 12 32 6.4 16.1 0.00 0.23 0.23 29 1014.0
20260506190214 12 17 8.0 16.1 0.00 0.23 0.23 27 1014.1
20260506185716 12 69 8.0 19.3 0.00 0.23 0.23 27 1014.2
20260506185214 12 22 6.4 12.9 0.00 0.23 0.23 29 1014.0
20260506184714 12 30 6.4 17.7 0.00 0.23 0.23 29 1014.1
20260506184214 12 67 6.4 14.5 0.00 0.23 0.23 28 1014.1
20260506183714 12 42 6.4 12.9 0.00 0.23 0.23 28 1014.2
20260506183214 12 54 6.4 24.1 0.00 0.23 0.23 27 1014.3
20260506182714 12 17 6.4 12.9 0.00 0.23 0.23 30 1014.2
20260506182214 12 346 6.4 22.5 0.00 0.23 0.23 28 1014.2
20260506181714 11 30 6.4 17.7 0.00 0.23 0.23 31 1014.2
20260506181214 11 0 6.4 16.1 0.00 0.23 0.23 27 1014.2
20260506180714 11 31 6.4 16.1 0.00 0.23 0.23 28 1014.1
20260506180214 11 24 8.0 16.1 0.00 0.23 0.23 29 1014.0
20260506175714 11 47 8.0 17.7 0.00 0.23 0.23 28 1014.2
20260506175214 11 40 8.0 17.7 0.00 0.23 0.23 27 1014.1
20260506174714 11 37 8.0 17.7 0.00 0.23 0.23 27 1014.0
20260506174214 11 46 8.0 16.1 0.00 0.23 0.23 29 1013.9
20260506173714 11 16 8.0 16.1 0.00 0.23 0.23 29 1013.8
20260506173214 11 28 8.0 20.9 0.00 0.23 0.23 30 1013.8
20260506172714 11 65 8.0 16.1 0.00 0.23 0.23 30 1013.6
20260506172214 11 13 9.7 22.5 0.00 0.23 0.23 29 1013.6
20260506171714 11 47 9.7 19.3 0.00 0.23 0.23 30 1013.6
20260506171214 11 14 8.0 22.5 0.00 0.23 0.23 29 1013.5
20260506170715 11 20 8.0 16.1 0.00 0.23 0.23 30 1013.4
20260506170214 11 62 9.7 24.1 0.00 0.23 0.23 28 1013.4
20260506165714 11 15 8.0 22.5 0.00 0.23 0.23 25 1013.3
20260506165215 10 19 8.0 17.7 0.00 0.23 0.23 28 1013.3
20260506164715 10 32 8.0 19.3 0.00 0.23 0.23 26 1013.2
20260506164214 10 49 8.0 14.5 0.00 0.23 0.23 27 1013.1
20260506163715 10 44 8.0 16.1 0.00 0.23 0.23 26 1013.0
20260506163214 10 51 8.0 16.1 0.00 0.23 0.23 28 1012.9
20260506162715 10 34 8.0 22.5 0.00 0.23 0.23 26 1012.9
20260506162214 11 37 8.0 14.5 0.00 0.23 0.23 27 1012.6
20260506161715 10 114 6.4 19.3 0.00 0.23 0.23 29 1012.6
20260506161215 10 26 8.0 12.9 0.00 0.23 0.23 29 1012.5
20260506160715 10 33 8.0 22.5 0.00 0.23 0.23 31 1012.3
20260506160215 10 90 8.0 17.7 0.00 0.23 0.23 35 1012.3
20260506155715 10 26 6.4 14.5 0.00 0.23 0.23 35 1012.3
20260506155215 10 25 8.0 16.1 0.00 0.23 0.23 36 1012.3
20260506154715 10 36 8.0 17.7 0.00 0.23 0.23 36 1012.1
20260506154215 10 76 8.0 17.7 0.00 0.23 0.23 37 1012.1
20260506153715 10 74 8.0 16.1 0.00 0.23 0.23 37 1012.0
20260506153215 10 34 6.4 19.3 0.00 0.23 0.23 38 1011.9
20260506152715 10 80 6.4 16.1 0.00 0.23 0.23 37 1011.9
20260506152215 10 47 6.4 19.3 0.00 0.23 0.23 40 1011.8
20260506151715 10 35 6.4 12.9 0.00 0.23 0.23 40 1011.7
20260506151215 10 30 6.4 16.1 0.00 0.23 0.23 40 1011.6
20260506150715 10 67 6.4 16.1 0.00 0.23 0.23 42 1011.6
20260506150215 10 56 4.8 16.1 0.00 0.23 0.23 46 1011.6
20260506145715 10 46 4.8 11.3 0.00 0.23 0.23 47 1011.5
20260506145215 10 24 4.8 11.3 0.00 0.23 0.23 47 1011.4
20260506144715 10 5 3.2 12.9 0.00 0.23 0.23 47 1011.3
20260506144215 10 348 4.8 9.7 0.00 0.23 0.23 47 1011.3
20260506143715 9 346 4.8 12.9 0.00 0.23 0.23 46 1011.2
20260506143215 9 341 3.2 11.3 0.00 0.23 0.23 47 1011.1
20260506142715 9 338 3.2 9.7 0.00 0.23 0.23 49 1011.2
20260506142215 9 337 3.2 11.3 0.00 0.23 0.23 48 1011.3
20260506141715 8 329 3.2 8.0 0.00 0.23 0.23 50 1011.2
20260506141215 8 326 3.2 8.0 0.00 0.23 0.23 50 1011.2
20260506140715 8 321 3.2 11.3 0.00 0.23 0.23 52 1011.1
20260506140215 8 321 3.2 11.3 0.00 0.23 0.23 55 1011.0
20260506135715 7 320 3.2 6.4 0.00 0.23 0.23 56 1011.0
20260506135215 7 320 3.2 8.0 0.00 0.23 0.23 57 1010.9
20260506134715 7 320 3.2 6.4 0.00 0.23 0.23 61 1010.8
20260506134215 6 320 1.6 8.0 0.00 0.23 0.23 63 1010.6
20260506133715 6 320 1.6 6.4 0.00 0.23 0.23 67 1010.6
20260506133215 6 320 1.6 4.8 0.00 0.23 0.23 68 1010.5
20260506132715 6 320 1.6 6.4 0.00 0.23 0.23 68 1010.4
20260506132215 6 320 0.0 6.4 0.00 0.23 0.23 69 1010.3
20260506131715 6 320 1.6 6.4 0.00 0.23 0.23 68 1010.2
20260506131215 5 320 1.6 8.0 0.00 0.23 0.23 68 1010.1
20260506130715 5 320 1.6 6.4 0.00 0.23 0.23 68 1010.0
20260506130215 5 320 1.6 6.4 0.00 0.23 0.23 70 1009.9
20260506125715 5 320 1.6 3.2 0.00 0.23 0.23 71 1009.9
20260506125215 5 320 1.6 4.8 0.00 0.23 0.23 71 1009.8
20260506124715 5 320 1.6 3.2 0.00 0.23 0.23 72 1009.8
20260506124215 5 320 1.6 4.8 0.00 0.23 0.23 72 1009.6
20260506123715 5 320 0.0 3.2 0.00 0.23 0.23 73 1009.6
20260506123215 5 320 1.6 3.2 0.00 0.23 0.23 73 1009.5